RH
36 37 37 38 39 40 40 40 41 41 41 41 40 40 39 39 38 37 36 36 35 34 33 32 32 32 31 31 31 30 29 29 29 29 28 28 28 28 28 28 27 27 26 25 24 23 22 23 23 24 23 22
41 42 42 43 44 44 44 44 44 44 44 43 43 42 41 40 40 39 37 37 36 35 34 33 33 33 33 33 32 32 32 32 32 32 32 31 31 30 29 28 28 28 27 26 26 26 25 25 25 25 24 24
48 49 49 49 49 49 48 48 48 47 47 46 46 45 44 44 42 41 40 39 38 37 37 36 36 36 36 36 36 36 36 37 37 36 35 34 33 32 31 30 29 29 29 29 28 28 27 27 27 26 26 24
53 53 53 53 53 53 52 51 51 51 51 51 51 51 50 49 48 47 45 44 43 42 41 41 41 42 42 42 42 42 41 41 40 39 38 36 35 33 32 31 31 31 31 31 30 29 28 28 28 27 26 24
57 57 58 58 58 57 57 56 57 58 59 60 60 59 58 57 55 53 51 49 47 46 46 47 47 47 47 47 46 46 44 43 41 40 39 37 36 35 34 34 33 34 34 33 31 30 29 29 28 27 26 24
67 66 66 66 65 64 64 64 66 67 68 69 68 67 65 63 60 57 54 51 49 48 48 48 49 49 48 48 47 47 45 44 43 41 40 38 37 36 36 37 37 37 37 36 34 32 31 30 29 27 26 24
84 82 80 78 77 76 75 75 75 76 76 76 75 72 70 67 62 59 56 52 49 49 48 48 48 48 48 48 47 46 45 44 43 42 42 41 40 39 39 39 39 39 39 38 36 34 32 30 29 27 26 25
99 97 94 91 89 87 86 84 83 84 85 85 83 79 74 69 65 62 58 53 50 49 49 48 48 48 47 47 47 46 45 44 44 44 44 43 43 42 41 41 40 41 41 39 38 36 34 31 30 28 27 26
103 102 100 99 97 96 94 93 92 92 93 91 87 82 76 71 67 64 60 56 53 51 50 49 48 48 48 48 48 47 47 46 46 46 46 45 44 44 43 43 43 42 42 40 39 37 35 33 31 30 29 28
102 102 101 101 101 100 99 99 100 99 96 92 86 82 77 72 69 66 63 59 56 53 51 49 49 48 49 49 49 49 50 49 49 48 47 47 46 45 45 44 44 44 43 41 40 38 36 35 33 32 30 30
102 103 102 100 100 100 100 101 101 98 93 88 84 81 77 74 71 69 66 63 59 56 53 51 51 50 51 51 51 51 52 51 51 50 48 47 46 45 45 45 44 44 43 42 40 39 38 36 35 34 32 31
99 100 99 96 92 92 91 91 92 90 87 84 80 78 75 73 72 70 68 66 62 59 56 54 53 53 53 53 54 54 53 52 51 50 48 46 45 45 44 44 44 44 44 42 41 40 39 38 37 35 34 32
93 92 92 91 86 82 79 77 80 80 78 77 75 71 69 68 67 66 65 63 61 59 57 55 54 54 54 55 55 55 54 51 49 47 46 45 43 43 43 43 43 44 44 43 42 41 40 39 38 37 35 33
83 81 82 82 79 76 73 71 71 70 69 69 69 68 66 63 61 59 58 57 57 56 55 53 52 52 53 54 54 53 51 48 46 45 44 44 43 42 41 41 41 41 42 42 42 42 41 40 39 38 36 34
68 69 69 69 69 68 67 65 65 64 63 62 62 62 62 60 57 54 53 52 51 50 49 48 48 48 49 50 49 47 46 45 44 43 44 43 43 42 41 40 39 39 40 40 41 41 41 40 40 38 37 35
57 58 59 59 59 59 60 59 59 59 58 57 56 56 55 55 53 52 50 48 46 44 43 43 44 44 45 45 44 42 42 42 43 43 43 42 42 41 40 40 40 40 40 39 39 39 39 39 39 38 37 36
51 51 51 52 52 52 52 52 52 52 52 52 52 51 51 51 50 49 48 46 45 43 41 42 43 44 44 44 42 42 41 42 42 42 42 41 40 40 40 40 40 40 39 39 39 38 38 38 37 37 37 36
48 47 47 47 47 47 47 47 47 47 48 48 48 48 47 48 48 47 45 44 43 41 41 41 43 44 44 44 43 42 42 43 43 43 43 42 41 40 40 40 40 39 39 38 38 38 38 37 37 36 36 35
53 51 49 48 47 47 46 46 46 46 46 47 47 47 47 47 47 47 46 45 44 42 41 41 43 44 45 45 45 45 45 45 45 45 45 44 43 42 41 41 40 39 38 37 37 36 36 35 35 35 34 34
59 58 56 54 52 51 49 47 46 45 45 45 45 46 46 47 47 47 46 45 45 43 43 43 44 45 46 46 46 45 46 46 46 45 44 44 43 42 40 39 37 36 35 34 33 33 32 32 32 31 31 31
57 57 57 57 56 55 53 51 49 48 46 45 45 45 45 45 44 43 42 42 42 41 41 42 42 42 43 43 42 42 43 43 42 41 41 40 39 37 36 34 32 31 30 29 29 28 28 28 27 27 27 27
51 51 51 51 52 52 51 50 49 47 47 46 46 46 46 45 44 43 42 41 39 39 39 39 39 39 39 39 38 37 38 37 37 36 35 34 32 30 29 28 28 27 26 25 24 24 24 23 23 23 23 23
42 42 42 43 43 43 43 43 42 42 42 42 42 43 44 43 42 41 40 39 37 36 36 36 36 36 36 35 34 33 33 33 32 31 29 27 26 25 24 24 24 23 22 21 20 21 20 20 20 19 19 18
34 34 35 36 36 36 35 35 35 35 35 35 36 37 38 39 39 38 37 36 34 33 33 34 33 33 33 33 32 31 30 29 28 26 24 23 23 23 22 22 22 20 19 18 18 19 18 18 17 16 16 16
21 23 25 27 29 30 30 31 31 31 31 31 31 31 32 33 33 33 33 31 30 30 31 31 30 30 30 31 30 28 27 25 24 23 22 22 22 22 21 20 19 18 17 16 16 16 16 15 14 14 13 13
13 13 14 16 17 19 20 22 24 25 26 27 28 29 29 29 29 29 28 28 27 26 26 26 26 26 26 26 26 25 24 22 21 22 22 22 22 20 19 18 17 16 15 14 14 13 13 12 12 12 11 11
14 13 13 13 13 13 13 13 14 15 16 18 19 20 22 23 24 25 26 26 26 25 25 25 25 25 25 25 24 24 22 21 21 21 21 21 20 19 17 16 16 16 15 13 13 13 13 12 12 12 12 12
15 15 15 14 14 14 15 14 14 13 12 12 12 13 13 13 14 15 17 18 18 19 20 21 22 23 24 24 25 25 24 24 24 24 24 23 22 21 20 19 19 18 17 15 16 16 15 14 14 15 14 14
13 14 13 13 14 14 14 14 14 14 14 13 13 12 12 11 11 11 11 11 11 11 11 12 14 15 16 16 17 17 18 18 19 19 20 20 20 19 18 17 17 16 16 15 15 15 13 13 13 14 13 12
9 10 11 11 11 11 12 12 13 13 13 13 12 12 12 12 12 11 11 11 10 9 8 8 9 10 10 11 10 10 10 10 10 10 10 10 11 10 10 10 9 9 10 10 10 9 9 9 9 9 9 8
7 7 8 8 9 9 9 10 10 10 11 11 11 11 11 11 11 12 11 12 11 10 9 8 8 9 9 10 10 9 9 9 8 8 8 7 7 7 6 6 6 6 6 6 6 6 6 6 6 6 6 6
Wind_Speed
91 91 90 90 90 90 90 90 90 90 90 90 91 91 91 91 91 91 90 90 90 89 88 88 87 86 85 84 83 82 82 81 80 79 79 78 78 78 77 77 77 77 78 79 79 79 79 78 78 78 78 78
93 93 92 92 91 91 91 90 90 90 90 90 90 90 90 90 90 90 90 89 89 88 88 87 86 85 84 84 83 82 81 80 80 79 78 78 78 78 78 77 77 78 79 79 80 80 80 79 79 79 79 79
93 92 91 91 91 91 90 90 89 89 89 89 89 89 89 89 89 88 88 87 87 86 86 86 85 84 83 82 81 81 80 79 79 78 78 78 78 78 78 78 78 78 79 80 80 80 80 81 81 80 80 80
91 91 90 90 90 89 89 88 88 87 87 87 87 87 87 87 87 86 86 85 85 85 84 84 83 82 81 81 80 79 79 78 78 78 78 78 78 78 78 78 78 79 79 80 80 80 81 82 82 82 82 82
90 90 89 89 88 88 87 86 86 85 85 86 86 85 85 86 86 85 85 85 84 84 83 82 82 81 80 80 79 78 78 78 78 78 78 78 78 78 78 78 78 79 79 80 81 81 82 83 83 83 83 83
87 87 87 86 86 86 85 85 85 85 85 85 85 85 86 86 86 86 85 85 84 84 83 82 82 81 80 80 79 78 78 78 78 78 78 79 79 79 78 78 79 79 80 80 81 82 82 83 84 84 84 84
83 83 84 84 84 83 83 83 84 85 85 86 86 86 87 87 86 86 86 85 85 84 83 82 82 81 80 80 79 79 78 78 78 79 79 79 79 79 79 79 79 80 80 81 82 82 83 83 84 85 85 85
80 81 81 81 81 81 82 83 84 85 85 86 87 87 87 87 86 86 86 85 85 84 83 82 82 81 80 80 79 79 79 79 79 79 80 80 80 80 80 80 81 81 82 82 82 83 83 84 85 86 86 86
79 80 80 80 81 81 82 83 84 85 86 87 88 88 87 86 86 86 85 85 84 84 83 82 82 81 80 80 80 80 80 80 80 80 81 81 81 81 81 81 82 82 82 83 83 84 84 85 86 87 88 88
80 81 81 81 82 82 83 84 85 86 87 89 89 88 87 86 86 86 85 85 85 84 83 82 82 81 81 81 81 81 81 81 82 82 82 82 83 83 83 83 83 84 84 84 85 85 86 87 87 88 89 90
82 83 84 84 85 85 86 87 88 89 90 90 90 89 88 88 87 87 86 86 85 85 84 83 83 82 82 82 82 83 83 83 84 84 84 84 84 84 84 84 85 85 86 86 87 87 88 88 89 90 90 91
84 86 87 88 88 89 90 90 90 91 92 91 90 89 89 89 89 89 88 88 87 86 85 85 85 84 84 84 85 85 86 86 86 86 85 85 85 85 86 86 87 87 88 89 89 90 90 90 91 91 92 93
87 88 89 89 90 90 91 91 91 93 93 92 91 90 91 91 91 91 90 89 89 88 87 87 87 86 86 87 87 88 88 88 88 87 87 87 87 87 87 88 88 89 90 91 91 92 93 93 93 93 94 94
88 89 90 90 91 91 91 91 91 92 92 92 92 91 92 93 93 92 91 91 91 90 90 89 89 89 89 90 90 90 90 90 89 88 88 88 89 89 89 89 90 91 92 92 93 94 95 95 95 95 95 96
89 90 91 91 92 92 92 92 92 93 93 92 92 93 94 94 94 93 93 93 93 92 92 91 91 91 92 92 92 92 92 91 90 90 90 90 91 91 91 91 91 91 92 93 94 95 96 97 97 97 98 98
91 91 92 92 93 93 93 93 93 94 94 93 93 94 95 95 95 95 95 95 94 94 93 93 93 93 94 94 94 93 92 92 92 92 92 92 92 92 92 91 91 91 91 92 93 95 96 97 98 99 100 100
92 92 93 93 94 94 94 94 95 95 95 94 94 95 95 96 95 96 96 96 95 95 94 93 93 94 94 95 94 94 93 93 93 93 93 93 93 93 92 92 92 91 91 91 92 93 94 96 98 99 100 101
95 95 95 95 95 96 96 96 96 96 96 95 95 96 96 97 97 97 97 96 96 95 94 93 93 94 95 95 95 95 94 94 94 94 94 94 94 93 93 93 93 92 92 92 92 93 93 94 95 97 99 100
99 99 99 99 98 98 98 98 98 98 98 97 97 97 97 98 98 98 98 98 97 96 94 94 94 95 96 97 97 96 96 96 95 95 95 95 95 95 95 95 95 95 95 95 94 94 93 93 94 95 97 99
105 105 104 104 104 103 103 103 103 102 101 100 100 100 100 101 101 101 101 100 100 99 97 97 97 98 98 99 99 99 98 99 98 98 98 98 98 98 98 98 98 98 97 96 96 95 94 94 94 95 97 97
111 111 110 109 109 109 109 108 108 108 107 105 105 104 104 105 105 105 104 104 104 103 102 101 101 101 101 102 103 102 102 102 102 102 101 101 102 102 101 101 100 99 99 97 97 96 96 96 96 97 97 98
117 116 116 115 114 114 114 113 113 113 112 111 110 109 109 109 110 109 109 109 108 107 106 106 105 105 105 106 106 106 106 106 105 105 105 105 104 103 103 102 102 101 100 99 98 98 98 99 99 99 99 99
122 121 120 120 120 119 119 118 118 117 116 116 115 114 114 114 114 114 114 114 113 112 111 110 110 109 109 109 109 109 109 109 109 108 108 107 106 105 104 104 104 103 103 102 101 101 102 102 103 103 102 101
124 124 124 124 123 123 123 123 122 121 121 120 120 119 119 119 119 119 119 119 118 116 115 115 114 114 113 113 113 113 113 113 112 111 110 108 108 107 107 107 107 107 106 106 105 106 107 107 107 107 106 105
121 122 124 124 125 125 126 126 126 125 125 124 124 124 124 124 124 124 124 123 123 121 120 120 119 118 117 117 118 117 117 116 115 114 113 112 112 112 112 111 111 111 111 110 110 110 111 110 109 109 108 108
116 117 118 119 121 122 123 124 125 125 126 127 127 128 128 128 128 128 128 128 127 126 125 124 123 122 122 122 122 122 121 120 119 118 118 117 117 117 117 116 115 115 115 114 113 113 112 111 111 111 110 110
115 115 115 115 115 116 118 119 120 121 122 123 125 126 127 128 129 129 129 130 130 129 129 127 126 126 126 126 126 126 126 124 123 123 123 123 123 122 121 119 118 118 118 117 116 115 114 113 113 113 113 113
112 113 114 114 113 114 115 116 117 117 118 119 120 121 123 124 125 126 127 128 129 129 128 127 127 126 127 128 128 129 128 127 126 126 127 127 126 125 124 123 122 121 120 119 118 118 118 116 115 116 115 116
107 108 110 110 111 111 112 113 115 116 117 117 118 118 119 120 121 121 122 124 126 126 125 124 124 125 126 127 127 127 127 126 126 127 127 127 127 126 126 124 123 122 122 121 121 121 120 118 118 117 117 117
102 103 105 106 106 107 108 109 111 112 114 115 116 117 118 119 119 119 119 121 123 123 121 119 120 121 122 124 125 125 125 124 124 124 124 125 124 124 124 123 122 121 121 121 121 121 120 119 118 118 117 117
100 100 101 102 103 104 105 106 107 109 110 111 113 114 115 116 117 117 118 120 121 122 120 118 117 117 117 119 121 123 123 122 122 122 122 122 122 122 122 121 120 119 119 119 119 119 119 119 118 117 117 117
Wind_Direction
267 267 267 267 267 267 267 267 267 267 267 267 267 266 266 266 265 265 265 264 263 263 262 261 260 259 258 257 256 255 254 254 253 253 252 251 251 250 250 250 250 250 250 250 250 250 249 248 248 248 247 247
267 267 266 266 266 266 266 266 267 267 267 266 266 266 266 265 265 264 264 263 262 261 260 259 258 257 256 255 254 254 253 253 252 252 251 251 250 250 249 249 248 248 248 248 249 249 248 248 247 246 246 246
266 265 265 265 265 266 266 266 266 266 266 265 265 265 265 264 264 263 262 262 261 260 259 258 257 256 255 254 253 253 252 252 251 251 251 250 250 249 248 248 247 247 247 247 248 247 247 247 247 246 246 246
265 265 265 265 265 265 265 265 265 264 264 264 264 263 263 262 262 261 261 260 259 258 257 256 255 255 254 253 252 252 251 251 251 250 250 250 249 249 248 247 247 247 247 247 247 247 247 247 247 246 246 245
264 264 264 264 264 264 264 264 263 263 262 262 262 261 261 261 260 260 259 258 257 256 255 255 254 253 253 252 251 251 251 251 251 250 250 250 249 249 248 248 247 247 247 247 247 247 247 247 247 246 246 245
263 263 263 263 263 263 262 262 261 260 260 260 260 260 260 260 259 258 258 257 256 255 254 254 253 252 252 251 251 251 251 251 251 251 250 250 250 249 248 248 247 247 247 247 247 247 247 247 247 247 246 246
261 261 261 261 261 261 260 260 259 259 259 259 260 260 260 259 258 258 257 256 255 255 254 253 252 252 251 251 251 251 250 250 251 251 251 250 250 249 248 248 247 247 247 247 247 247 247 247 247 247 247 246
258 259 259 259 259 259 259 258 258 259 259 259 260 260 259 259 258 257 257 256 255 254 253 252 252 251 251 251 251 251 251 250 251 251 251 250 250 250 249 248 248 247 247 247 247 247 247 247 247 247 247 247
256 256 256 257 257 257 257 258 258 258 259 259 259 259 259 258 257 257 256 255 255 254 253 252 252 251 251 251 251 251 251 251 251 251 251 251 250 250 249 249 248 248 247 247 247 247 247 247 247 247 247 247
254 255 255 255 255 255 256 256 257 257 258 258 258 258 258 257 256 256 255 255 254 253 253 252 252 251 251 251 251 251 251 251 251 251 251 251 251 250 250 249 248 248 248 248 248 247 247 247 247 247 247 247
254 255 255 255 255 255 255 256 256 256 256 256 256 256 256 256 255 255 254 254 254 253 252 252 251 251 251 251 251 251 251 251 252 252 251 251 251 251 250 250 249 248 248 248 247 247 247 247 247 247 247 247
256 256 256 256 256 256 256 256 256 256 256 256 255 255 255 255 254 254 253 253 253 252 252 251 251 251 251 251 251 251 251 251 252 252 252 252 251 251 251 250 249 249 248 248 247 247 247 247 247 247 247 247
256 257 257 257 257 257 256 256 256 256 256 256 256 256 256 255 254 254 253 253 253 252 252 251 251 251 251 251 251 252 252 252 252 252 252 252 252 252 251 251 250 249 248 248 247 247 247 247 247 247 247 248
256 256 256 257 256 256 256 256 256 256 256 256 256 256 256 255 255 254 254 253 253 253 252 252 252 252 252 252 252 252 252 253 253 253 253 253 253 253 252 252 251 250 249 249 248 248 247 247 248 248 248 248
256 256 256 256 256 256 256 256 256 256 256 256 255 255 255 255 255 255 254 254 253 253 253 253 253 253 253 253 253 253 254 254 254 254 254 254 254 254 254 253 252 252 251 250 249 249 248 248 248 248 248 248
258 257 257 257 257 257 256 256 256 256 256 256 256 255 255 255 255 254 254 254 254 254 254 254 254 254 254 255 255 255 255 256 256 256 256 256 256 256 255 255 254 254 253 252 251 250 250 249 249 249 249 249
259 259 259 259 258 258 258 258 258 257 257 257 257 257 256 256 256 255 255 255 255 255 255 255 255 256 256 256 257 257 257 257 257 257 257 257 257 257 257 257 257 256 255 254 253 253 252 251 250 250 250 250
261 261 260 260 260 260 260 260 259 259 259 259 259 258 258 258 258 258 257 257 257 257 257 256 256 257 257 257 258 258 258 258 258 258 258 258 258 258 259 259 259 258 257 256 255 255 254 253 253 252 251 251
263 262 262 262 262 262 261 261 261 261 260 260 260 260 260 260 260 260 259 259 259 259 258 258 258 258 258 258 258 259 259 259 259 259 259 259 259 259 259 259 259 259 258 258 257 256 256 255 255 254 253 253
264 264 263 263 263 263 263 263 262 262 262 261 261 261 261 261 261 261 261 261 260 260 260 259 259 259 259 259 259 260 260 260 260 260 260 260 260 260 260 259 259 259 259 258 258 258 258 257 257 256 255 254
265 265 264 264 264 264 264 264 264 264 263 263 262 262 262 262 262 262 262 262 262 261 261 261 260 260 260 260 260 260 260 260 260 260 260 260 260 260 260 260 260 260 260 260 260 260 260 259 258 257 257 256
266 266 265 265 265 264 264 264 264 264 264 264 264 264 263 263 263 263 263 263 263 262 262 262 261 261 261 261 261 261 261 261 261 261 261 260 260 260 260 261 261 262 262 262 261 261 261 261 260 260 259 258
266 266 266 265 265 265 265 265 265 265 265 265 265 264 264 264 264 264 264 264 264 263 263 263 263 262 262 262 262 262 262 262 262 262 261 261 261 262 262 263 263 263 262 262 262 262 262 262 261 261 260 259
265 265 265 265 265 265 265 265 265 265 265 265 265 265 265 264 264 264 264 264 264 264 264 264 264 263 263 263 263 263 263 263 263 263 263 263 263 263 263 263 263 263 262 262 262 262 262 261 261 260 260 259
264 264 264 264 264 264 265 265 265 265 265 265 265 265 265 265 265 265 265 265 265 265 264 264 264 264 264 264 264 264 264 264 264 264 264 264 264 264 264 263 263 262 262 262 261 261 261 260 260 260 260 260
265 264 264 264 264 264 264 263 263 264 264 264 264 264 264 264 264 264 264 264 264 264 264 264 264 264 264 264 264 264 264 264 264 264 265 265 264 264 263 262 262 262 262 262 261 261 260 260 260 261 261 261
267 266 265 265 264 264 264 263 263 262 262 262 262 262 262 262 262 262 262 262 262 262 262 262 263 263 263 263 263 263 264 264 264 264 264 264 264 263 263 262 262 262 262 261 261 261 261 261 260 260 260 260
265 265 265 264 264 264 264 264 264 263 262 262 261 261 261 261 261 261 261 261 261 261 261 261 262 261 261 261 261 261 262 262 262 262 262 262 262 262 262 262 262 262 261 261 261 261 261 260 260 260 260 260
263 263 263 262 262 262 261 262 262 262 262 262 262 261 261 261 260 260 260 260 260 260 260 260 260 260 261 261 261 261 260 261 261 261 261 261 261 261 261 261 261 261 261 261 261 261 260 260 259 260 259 259
262 262 262 261 261 261 260 259 260 260 260 261 261 261 261 261 261 261 260 260 260 260 259 258 258 258 259 259 260 260 260 260 260 260 260 260 260 260 260 260 260 260 261 260 260 260 260 260 259 259 259 259
261 260 260 260 260 260 259 259 258 258 258 259 259 260 260 260 260 261 261 261 261 261 261 260 259 258 258 258 259 259 259 260 260 260 260 260 261 261 261 260 260 260 260 260 260 260 260 260 259 259 259 259